Date String (YYYY-MM-DD hh:mm:ss) UTC,Instrument flags,Ambient pressure (hPa),Sample flow (lpm),Bypass flow (lpm),Sample temperature (°C),Ambient temperature (°C),ASC tube jacket temperature (°C),LED temperature (°C),Box temperature (°C),Sample RH (%),Span deviation,Mass concentration (μg/m³),Mass concentration (μg/m³),Mass concentration (μg/m³)
DateTimeUTC,F1_M11,P_M11,Q1_M11,Q2_M11,T1_M11,T2_M11,T3_M11,T4_M11,T5_M11,U1_M11,ZSPAN_M11,X0_M11,X2_M11,X1_M11
2023-02-13 08:00:00,,0823.4,5.01,0.00,21.9,20.1,00.0,30.8,23.4,09.2,0000.0,0006.13,0003.17,0002.81
2023-02-13 08:01:00,,0823.3,5.00,0.00,21.8,20.0,00.0,30.8,23.3,09.5,0000.0,0005.40,0002.91,0002.48
2023-02-13 08:02:00,,0823.3,4.99,0.00,21.7,19.9,00.0,30.8,23.2,10.0,0000.0,0004.40,0002.71,0002.30
2023-02-13 08:03:00,,0823.4,5.00,0.00,21.7,19.7,00.0,30.8,23.2,09.9,0000.0,0004.23,0002.60,0002.17
2023-02-13 08:04:00,,0823.3,4.98,0.00,21.7,20.5,00.0,30.7,23.4,09.7,0000.0,0004.04,0002.47,0002.06
2023-02-13 08:05:00,,0823.3,5.05,0.00,21.8,21.8,00.0,30.7,23.7,09.6,0000.0,0004.28,0002.40,0002.02
2023-02-13 08:06:00,,0823.3,4.99,0.00,22.0,22.6,00.0,30.7,24.0,09.7,0000.0,0005.66,0002.50,0002.10
2023-02-13 08:07:00,,0823.4,4.98,0.00,22.0,22.0,00.0,30.8,23.9,09.8,0000.0,0005.90,0002.68,0002.24
2023-02-13 08:08:00,,0823.4,5.05,0.00,22.0,21.3,00.0,30.8,23.7,10.0,0000.0,0006.19,0002.88,0002.40
2023-02-13 08:09:00,,0823.4,5.01,0.00,21.9,20.9,00.0,30.8,23.6,10.2,0000.0,0006.21,0003.08,0002.61
2023-02-13 08:10:00,,0823.4,5.00,0.00,21.9,20.5,00.0,30.8,23.5,10.1,0000.0,0006.57,0003.26,0002.84
2023-02-13 08:11:00,,0823.4,4.99,0.00,21.9,20.3,00.0,30.8,23.5,09.9,0000.0,0006.85,0003.36,0003.02
2023-02-13 08:12:00,,0823.4,5.00,0.00,21.8,20.2,00.0,30.8,23.4,09.8,0000.0,0006.98,0003.39,0003.09
2023-02-13 08:13:00,,0823.4,5.01,0.00,21.8,20.0,00.0,30.8,23.3,09.3,0000.0,0007.05,0003.38,0003.06
2023-02-13 08:14:00,,0823.3,5.01,0.00,21.7,19.8,00.0,30.8,23.2,09.2,0000.0,0006.91,0003.33,0002.99
2023-02-13 08:15:00,,0823.3,4.99,0.00,21.6,19.6,00.0,30.7,23.1,09.2,0000.0,0006.95,0003.33,0002.97
2023-02-13 08:16:00,,0823.2,5.01,0.00,21.6,20.0,00.0,30.7,23.2,09.1,0000.0,0007.03,0003.35,0002.96
2023-02-13 08:17:00,,0823.2,5.00,0.00,21.7,21.4,00.0,30.7,23.6,09.0,0000.0,0005.96,0003.31,0002.90
2023-02-13 08:18:00,,0823.3,5.00,0.00,21.9,22.6,00.0,30.7,23.9,09.1,0000.0,0005.91,0003.25,0002.83
2023-02-13 08:19:00,,0823.3,4.99,0.00,22.0,22.4,00.0,30.7,23.9,09.1,0000.0,0005.78,0003.20,0002.75
2023-02-13 08:20:00,,0823.2,5.01,0.00,22.0,21.7,00.0,30.8,23.8,08.6,0000.0,0005.62,0003.13,0002.60
2023-02-13 08:21:00,,0823.2,4.99,0.00,21.9,21.2,00.0,30.8,23.7,09.1,0000.0,0005.28,0003.01,0002.49
2023-02-13 08:22:00,,0823.2,5.01,0.00,21.9,20.9,00.0,30.8,23.6,09.4,0000.0,0005.20,0003.00,0002.46
2023-02-13 08:23:00,,0823.2,5.01,0.00,21.9,20.6,00.0,30.8,23.5,09.5,0000.0,0005.25,0003.02,0002.46
2023-02-13 08:24:00,,0823.2,5.00,0.00,21.9,20.4,00.0,30.8,23.5,09.6,0000.0,0005.87,0003.07,0002.51
2023-02-13 08:25:00,,0823.1,5.01,0.00,21.9,20.3,00.0,30.8,23.5,09.8,0000.0,0007.10,0003.17,0002.60
2023-02-13 08:26:00,,0823.1,5.01,0.00,21.8,20.2,00.0,30.8,23.5,09.7,0000.0,0007.20,0003.22,0002.69
2023-02-13 08:27:00,,0823.1,4.99,0.00,21.8,20.1,00.0,30.8,23.4,09.0,0000.0,0006.93,0003.21,0002.71
2023-02-13 08:28:00,,0823.0,5.01,0.00,21.8,20.0,00.0,30.8,23.3,08.7,0000.0,0006.36,0003.20,0002.71
2023-02-13 08:29:00,,0823.0,4.99,0.00,21.7,20.0,00.0,30.7,23.3,08.8,0000.0,0006.88,0003.19,0002.69
2023-02-13 08:30:00,,0823.0,4.99,0.00,21.8,21.1,00.0,30.7,23.6,09.0,0000.0,0007.63,0003.17,0002.68
2023-02-13 08:31:00,,0823.1,5.05,0.00,21.9,22.3,00.0,30.7,23.9,08.8,0000.0,0007.67,0003.21,0002.74
2023-02-13 08:32:00,,0823.1,4.97,0.00,22.0,22.6,00.0,30.7,24.0,08.3,0000.0,0007.65,0003.20,0002.69
2023-02-13 08:33:00,,0823.0,5.00,0.00,22.0,21.9,00.0,30.8,23.9,08.1,0000.0,0007.56,0003.13,0002.58
2023-02-13 08:34:00,,0823.0,5.00,0.00,22.0,21.2,00.0,30.8,23.7,07.9,0000.0,0007.47,0002.99,0002.44
2023-02-13 08:35:00,,0823.0,4.99,0.00,21.9,20.8,00.0,30.8,23.6,07.9,0000.0,0006.95,0002.85,0002.28
2023-02-13 08:36:00,,0823.0,4.99,0.00,21.9,20.4,00.0,30.8,23.4,07.8,0000.0,0005.63,0002.65,0002.11
2023-02-13 08:37:00,,0823.0,5.00,0.00,21.8,20.1,00.0,30.8,23.3,07.9,0000.0,0005.36,0002.45,0001.94
2023-02-13 08:38:00,,0823.0,4.98,0.00,21.8,19.9,00.0,30.8,23.2,08.1,0000.0,0005.16,0002.34,0001.86
2023-02-13 08:39:00,,0822.9,5.01,0.00,21.7,19.8,00.0,30.8,23.2,08.1,0000.0,0005.05,0002.26,0001.80
2023-02-13 08:40:00,,0822.9,5.00,0.00,21.7,19.7,00.0,30.8,23.2,08.0,0000.0,0004.77,0002.19,0001.73
2023-02-13 08:41:00,,0823.0,5.00,0.00,21.7,19.7,00.0,30.7,23.2,08.1,0000.0,0003.15,0002.09,0001.65
2023-02-13 08:42:00,,0822.9,5.07,0.00,21.7,20.7,00.0,30.7,23.5,08.1,0000.0,0002.93,0001.95,0001.53
2023-02-13 08:43:00,,0822.9,5.01,0.00,21.9,22.1,00.0,30.7,23.8,08.0,0000.0,0002.76,0001.81,0001.44
2023-02-13 08:44:00,,0822.9,5.00,0.00,22.0,22.8,00.0,30.7,24.1,08.1,0000.0,0002.65,0001.75,0001.40
2023-02-13 08:45:00,,0822.9,4.97,0.00,22.1,22.3,00.0,30.8,24.0,08.3,0000.0,0002.66,0001.75,0001.41
2023-02-13 08:46:00,,0822.9,5.06,0.00,22.0,21.8,00.0,30.8,23.9,08.5,0000.0,0002.66,0001.78,0001.44
2023-02-13 08:47:00,,0823.0,5.02,0.00,22.0,21.4,00.0,30.8,23.8,08.3,0000.0,0002.67,0001.79,0001.45
2023-02-13 08:48:00,,0823.0,4.99,0.00,22.0,21.1,00.0,30.8,23.8,08.2,0000.0,0002.63,0001.79,0001.45
2023-02-13 08:49:00,,0823.0,5.01,0.00,22.0,20.8,00.0,30.9,23.7,08.2,0000.0,0002.60,0001.78,0001.45
2023-02-13 08:50:00,,0823.0,5.00,0.00,22.0,20.6,00.0,30.9,23.7,08.1,0000.0,0002.64,0001.79,0001.45
2023-02-13 08:51:00,,0822.9,4.99,0.00,22.0,20.5,00.0,30.9,23.6,08.1,0000.0,0002.78,0001.82,0001.47
2023-02-13 08:52:00,,0822.9,5.02,0.00,21.9,20.3,00.0,30.9,23.6,08.3,0000.0,0002.76,0001.80,0001.46
2023-02-13 08:53:00,,0823.0,5.01,0.00,21.9,20.2,00.0,30.8,23.5,08.8,0000.0,0003.06,0001.82,0001.47
2023-02-13 08:54:00,,0823.0,4.98,0.00,21.8,20.0,00.0,30.8,23.4,08.8,0000.0,0003.23,0001.83,0001.48
2023-02-13 08:55:00,,0823.0,5.01,0.00,21.8,19.9,00.0,30.8,23.4,08.5,0000.0,0003.21,0001.81,0001.47
2023-02-13 08:56:00,,0823.0,5.01,0.00,21.8,20.4,00.0,30.8,23.5,08.1,0000.0,0003.08,0001.74,0001.42
2023-02-13 08:57:00,,0823.0,4.99,0.00,21.9,21.8,00.0,30.8,23.8,08.0,0000.0,0002.84,0001.64,0001.37
2023-02-13 08:58:00,,0822.8,5.03,0.00,22.1,22.8,00.0,30.8,24.1,08.0,0000.0,0002.97,0001.59,0001.33
2023-02-13 08:59:00,,0822.8,5.01,0.00,22.1,22.5,00.0,30.8,24.1,07.9,0000.0,0003.14,0001.65,0001.32
